• In Sweden
  • List of Countries
  • For 7 days
  • Water Temperature
  • Satellite Maps
  • Weather Map
  • Weather Widgets
  • user-avatar
    Login

    Hourly Weather Dementeevo

    Today, 25 September, Tuesday

    Time Temperature Precipitation Wind Pressure Humidity
    00:00 +9°C° 0 mm 8 mps 729 mmHg 85%
    01:00 +7°C° 0 mm 8 mps 729 mmHg 84%
    02:00 +7°C° 0 mm 6 mps 729 mmHg 84%
    03:00 +7°C° 0 mm 6 mps 729 mmHg 84%
    04:00 +7°C° 0 mm 6 mps 730 mmHg 84%
    05:00 +6°C° 0 mm 7 mps 730 mmHg 84%
    06:00 +6°C° 0 mm 7 mps 731 mmHg 83%
    07:00 +6°C° 0 mm 7 mps 731 mmHg 82%
    08:00 +6°C° 0 mm 7 mps 731 mmHg 82%
    09:00 +6°C° 0 mm 7 mps 732 mmHg 80%
    10:00 +8°C° 0 mm 7 mps 733 mmHg 77%
    11:00 +7°C° 0 mm 8 mps 733 mmHg 75%
    12:00 +8°C° 0 mm 7 mps 734 mmHg 74%
    13:00 +8°C° 0 mm 7 mps 735 mmHg 72%
    14:00 +8°C° 0 mm 7 mps 736 mmHg 71%
    15:00 +8°C° 0 mm 7 mps 736 mmHg 72%
    16:00 +7°C° 0 mm 6 mps 737 mmHg 73%
    17:00 +7°C° 0 mm 6 mps 738 mmHg 73%
    18:00 +6°C° 0 mm 5 mps 738 mmHg 74%
    19:00 +6°C° 0 mm 5 mps 739 mmHg 74%
    20:00 +6°C° 0 mm 5 mps 739 mmHg 74%
    21:00 +6°C° 0 mm 5 mps 740 mmHg 75%
    22:00 +5°C° 0 mm 5 mps 741 mmHg 76%
    23:00 +5°C° 0 mm 5 mps 741 mmHg 78%

    Tomorrow, 26 September, Wednesday

    Time Temperature Precipitation Wind Pressure Humidity
    00:00 +5°C° 0 mm 4 mps 742 mmHg 80%
    01:00 +4°C° 0 mm 4 mps 742 mmHg 82%
    02:00 +4°C° 0 mm 4 mps 743 mmHg 84%
    03:00 +3°C° 0 mm 4 mps 743 mmHg 85%
    04:00 +3°C° 0 mm 4 mps 744 mmHg 86%
    05:00 +1°C° 0 mm 4 mps 744 mmHg 88%
    06:00 +3°C° 0 mm 4 mps 745 mmHg 83%
    07:00 +4°C° 0 mm 4 mps 746 mmHg 78%
    08:00 +3°C° 0 mm 5 mps 746 mmHg 73%
    09:00 +6°C° 0 mm 5 mps 747 mmHg 67%
    10:00 +7°C° 0 mm 5 mps 747 mmHg 61%
    11:00 +8°C° 0 mm 5 mps 747 mmHg 55%
    12:00 +8°C° 0 mm 5 mps 747 mmHg 53%
    13:00 +10°C° 0 mm 4 mps 747 mmHg 50%
    14:00 +10°C° 0 mm 4 mps 747 mmHg 48%
    15:00 +8°C° 0 mm 4 mps 747 mmHg 54%
    16:00 +8°C° 0 mm 3 mps 747 mmHg 59%
    17:00 +7°C° 0 mm 3 mps 747 mmHg 65%
    18:00 +7°C° 0 mm 3 mps 746 mmHg 67%
    19:00 +5°C° 0 mm 4 mps 746 mmHg 70%
    20:00 +5°C° 0 mm 4 mps 746 mmHg 73%
    21:00 +5°C° 0 mm 5 mps 746 mmHg 71%
    22:00 +4°C° 0 mm 6 mps 745 mmHg 69%
    23:00 +4°C° 0 mm 6 mps 744 mmHg 68%

    Day after tomorrow, 27 September, Thursday

    Time Temperature Precipitation Wind Pressure Humidity
    00:00 +4°C° 0.1 mm 7 mps 743 mmHg 67%
    01:00 +5°C° 0.1 mm 7 mps 742 mmHg 65%
    02:00 +5°C° 0.1 mm 8 mps 742 mmHg 64%
    03:00 +3°C° 0.8 mm 9 mps 740 mmHg 69%
    04:00 +3°C° 0.8 mm 9 mps 739 mmHg 74%
    05:00 +3°C° 0.8 mm 10 mps 738 mmHg 78%
    06:00 +3°C° 0.8 mm 10 mps 737 mmHg 80%
    07:00 +3°C° 0.8 mm 10 mps 737 mmHg 82%
    08:00 +3°C° 0.8 mm 10 mps 736 mmHg 84%
    09:00 +5°C° 0.4 mm 10 mps 736 mmHg 85%
    10:00 +6°C° 0.4 mm 9 mps 735 mmHg 85%
    11:00 +6°C° 0.4 mm 9 mps 735 mmHg 85%
    12:00 +7°C° 0.4 mm 9 mps 735 mmHg 86%
    13:00 +7°C° 0.4 mm 8 mps 735 mmHg 86%
    14:00 +7°C° 0.4 mm 8 mps 735 mmHg 86%
    15:00 +8°C° 0.2 mm 7 mps 735 mmHg 85%
    16:00 +8°C° 0.2 mm 7 mps 735 mmHg 83%
    17:00 +8°C° 0.2 mm 6 mps 736 mmHg 82%
    18:00 +8°C° 0 mm 5 mps 736 mmHg 82%
    19:00 +7°C° 0 mm 5 mps 737 mmHg 83%
    20:00 +6°C° 0 mm 4 mps 738 mmHg 83%
    21:00 +6°C° 0 mm 4 mps 738 mmHg 84%
    22:00 +5°C° 0 mm 4 mps 738 mmHg 84%
    23:00 +5°C° 0 mm 5 mps 738 mmHg 85%

    28 September, Friday

    Time Temperature Precipitation Wind Pressure Humidity
    00:00 +5°C° 0 mm 5 mps 739 mmHg 85%
    01:00 +5°C° 0 mm 5 mps 739 mmHg 86%
    02:00 +3°C° 0 mm 5 mps 739 mmHg 86%
    03:00 +4°C° 0 mm 4 mps 739 mmHg 87%
    04:00 +4°C° 0 mm 4 mps 739 mmHg 88%
    05:00 +3°C° 0 mm 4 mps 740 mmHg 89%
    06:00 +3°C° 0 mm 5 mps 739 mmHg 85%
    07:00 +6°C° 0 mm 5 mps 739 mmHg 81%
    08:00 +7°C° 0 mm 6 mps 739 mmHg 77%
    09:00 +9°C° 0 mm 7 mps 738 mmHg 74%
    10:00 +11°C° 0 mm 8 mps 737 mmHg 71%
    11:00 +13°C° 0 mm 9 mps 737 mmHg 68%
    12:00 +13°C° 0 mm 9 mps 736 mmHg 72%
    13:00 +12°C° 0 mm 10 mps 735 mmHg 76%
    14:00 +12°C° 0 mm 10 mps 735 mmHg 80%
    15:00 +12°C° 0.4 mm 9 mps 734 mmHg 81%
    16:00 +12°C° 0.4 mm 9 mps 734 mmHg 83%
    17:00 +12°C° 0.4 mm 9 mps 733 mmHg 85%
    18:00 +12°C° 0.5 mm 8 mps 734 mmHg 84%
    19:00 +12°C° 0.5 mm 8 mps 734 mmHg 83%
    20:00 +12°C° 0.5 mm 8 mps 734 mmHg 82%
    21:00 +10°C° 0.1 mm 7 mps 735 mmHg 83%
    22:00 +9°C° 0.1 mm 7 mps 736 mmHg 84%
    23:00 +7°C° 0.1 mm 6 mps 737 mmHg 85%

    29 September, Saturday

    Time Temperature Precipitation Wind Pressure Humidity
    00:00 +6°C° 0 mm 5 mps 738 mmHg 85%
    01:00 +4°C° 0 mm 4 mps 739 mmHg 86%
    02:00 +3°C° 0 mm 3 mps 740 mmHg 87%
    03:00 +2°C° 0 mm 3 mps 741 mmHg 88%
    04:00 +2°C° 0 mm 3 mps 741 mmHg 89%
    05:00 +2°C° 0 mm 2 mps 742 mmHg 91%
    06:00 +3°C° 0 mm 2 mps 743 mmHg 84%
    07:00 +3°C° 0 mm 3 mps 743 mmHg 78%
    08:00 +3°C° 0 mm 3 mps 744 mmHg 71%
    09:00 +5°C° 0 mm 3 mps 744 mmHg 63%
    10:00 +7°C° 0 mm 3 mps 745 mmHg 56%
    11:00 +8°C° 0 mm 3 mps 745 mmHg 48%
    12:00 +8°C° 0 mm 3 mps 745 mmHg 47%
    13:00 +8°C° 0 mm 3 mps 745 mmHg 46%
    14:00 +8°C° 0 mm 2 mps 745 mmHg 46%
    15:00 +8°C° 0 mm 2 mps 746 mmHg 50%
    16:00 +7°C° 0 mm 2 mps 746 mmHg 54%
    17:00 +7°C° 0 mm 1 mps 746 mmHg 58%
    18:00 +7°C° 0 mm 1 mps 746 mmHg 60%
    19:00 +6°C° 0 mm 1 mps 747 mmHg 63%
    20:00 +5°C° 0 mm 1 mps 747 mmHg 65%
    21:00 +5°C° 0 mm 1 mps 747 mmHg 66%
    22:00 +4°C° 0 mm 1 mps 748 mmHg 68%
    23:00 +4°C° 0 mm 1 mps 748 mmHg 69%

    30 September, Sunday

    Time Temperature Precipitation Wind Pressure Humidity
    00:00 +4°C° 0 mm 1 mps 748 mmHg 70%
    01:00 +3°C° 0 mm 1 mps 748 mmHg 71%
    02:00 +3°C° 0 mm 1 mps 749 mmHg 72%
    03:00 +3°C° 0 mm 1 mps 749 mmHg 73%
    04:00 +3°C° 0 mm 1 mps 749 mmHg 74%
    05:00 +3°C° 0 mm 1 mps 749 mmHg 75%
    06:00 +4°C° 0 mm 1 mps 749 mmHg 71%
    07:00 +5°C° 0 mm 1 mps 750 mmHg 67%
    08:00 +6°C° 0 mm 1 mps 750 mmHg 62%
    09:00 +7°C° 0 mm 2 mps 750 mmHg 58%
    10:00 +8°C° 0 mm 2 mps 750 mmHg 54%
    11:00 +9°C° 0 mm 2 mps 750 mmHg 50%
    12:00 +10°C° 0 mm 2 mps 749 mmHg 49%
    13:00 +10°C° 0 mm 3 mps 749 mmHg 48%
    14:00 +11°C° 0 mm 3 mps 748 mmHg 47%
    15:00 +9°C° 0 mm 2 mps 748 mmHg 52%
    16:00 +8°C° 0 mm 2 mps 748 mmHg 57%
    17:00 +7°C° 0 mm 2 mps 747 mmHg 61%
    18:00 +6°C° 0 mm 2 mps 748 mmHg 62%
    19:00 +6°C° 0 mm 2 mps 748 mmHg 63%
    20:00 +5°C° 0 mm 2 mps 748 mmHg 64%
    21:00 +5°C° 0 mm 2 mps 747 mmHg 64%
    22:00 +4°C° 0 mm 2 mps 747 mmHg 64%
    23:00 +4°C° 0 mm 2 mps 747 mmHg 65%
    Show more